Lexington Weather

Lexington, Massachusetts, USA

34°F
4/16/2021 9:55am 
  • Lexington Conditions: Snow, Mist, Overcast
  • Temperature: 33.8°F / 1.0°CColder 1.8°F than last hour.
  • Dew Point: 32.5°FDecreased 1.5°Fsince last hour.
  • Relative Humidity: 95%Increased 1.0% since last hour.
  • Wind: Calm, 10-min avg: Calm, gust: None
  • Barometer: 29.50 in Steady
  • Visibility: ½ mile
  • Snow Today: 0.3 in
  •   

Regional Weather Roundup
for Boston / Norton, MA

        
000
ASUS41 KBOX 130504
RWRBOX

REGIONAL WEATHER ROUNDUP
NATIONAL WEATHER SERVICE BOSTON/NORTON MA
100 AM EDT TUE APR 13 2021

NOTE:  "FAIR" INDICATES FEW OR NO CLOUDS BELOW 12,000 FEET WITH NO 
SIGNIFICANT WEATHER AND/OR OBSTRUCTIONS TO VISIBILITY.

MAZALL-130600-
EASTERN MASSACHUSETTS
  
CITY           SKY/WX    TMP DP  RH WIND       PRES   REMARKS
BOSTON         MOCLDY    43  37  79 N8        29.98R                  
BEVERLY        NOT AVBL                                               
LAWRENCE       CLOUDY    37  34  89 CALM      30.00R                  
BEDFORD        PTCLDY    34  32  92 CALM      29.97R                  
BLUE HILL        N/A     37  36  96 N12       29.94S WCI  29          
NORWOOD        PTCLDY    37  34  89 CALM      29.97R                  
MARSHFIELD     MOCLDY    43  41  93 VRB5      29.96S                  
PLYMOUTH       PTCLDY    38  36  92 N7        29.95R                  
TAUNTON        MOCLDY    34  32  92 CALM      29.96R                  
NEW BEDFORD    MOCLDY    40  37  89 N5        29.94S                  
$$

MAZALL-130600-
CAPE COD AND THE ISLANDS
  
CITY           SKY/WX    TMP DP  RH WIND       PRES   REMARKS
FALMOUTH       NOT AVBL                                               
HYANNIS        PTCLDY    43  39  86 N7        29.92R                  
CHATHAM        PTCLDY    40  36  86 CALM      29.94R                  
PROVINCETOWN   MOCLDY    42  40  92 N10       29.95S                  
NANTUCKET      PTCLDY    40  37  89 N12       29.91S                  
MARTHAS VNYRD  PTCLDY    41  38  89 N12       29.92S                  
$$
 
MAZALL-130600-
CENTRAL AND WESTERN MASSACHUSETTS
  
CITY           SKY/WX    TMP DP  RH WIND       PRES   REMARKS
WORCESTER      PTCLDY    39  32  76 N7        29.95S                  
FITCHBURG      PTCLDY    35  33  92 NW3       29.99R                  
ORANGE         PTCLDY    35  32  88 CALM      29.99R                  
SPRINGFIELD    PTCLDY    37  36  95 NE3       29.97S                  
WESTFIELD      PTCLDY    38  35  89 CALM      29.98S                  
NORTH ADAMS    PTCLDY    40  36  86 CALM      29.98R                  
PITTSFIELD     PTCLDY    40  35  83 CALM      29.95S                  
$$
 
RIZALL-130600-
RHODE ISLAND
  
CITY           SKY/WX    TMP DP  RH WIND       PRES   REMARKS
PROVIDENCE     MOCLDY    42  37  82 N9        29.96R                  
NEWPORT        PTCLDY    41  37  86 N8        29.93S                  
BLOCK ISLAND   PTCLDY    41  36  82 N9        29.94S                  
SMITHFIELD     MOCLDY    39  38  96 N8        29.96R                  
WESTERLY       PTCLDY    39  35  86 N3        29.94F                  
$$
 
CTZALL-130600-
CONNECTICUT
  
CITY           SKY/WX    TMP DP  RH WIND       PRES   REMARKS
BRADLEY INTL   MOCLDY    40  34  79 NE7       29.98S                  
HARTFORD       PTCLDY    44  35  70 N6        29.98S                  
BRIDGEPORT     CLOUDY    47  38  71 NE7       29.96S                  
DANBURY        CLOUDY    46  35  65 NE8       29.97S                  
GROTON         PTCLDY    41  35  79 N6        29.94F                  
NEW HAVEN      PTCLDY    45  37  73 N6        29.96S                  
CHESTER        FAIR      41  37  87 N5        29.95S                  
MERIDEN        CLEAR     43  34  70 N3        29.97S                  
WILLIMANTIC    PTCLDY    40  36  86 N6        29.97S                  
OXFORD         PTCLDY    41  36  82 NE5       29.97S                  
$$

MEZ002-015-021-024-NHZ003-005-008-011-012-014-VTZ005-008-130600-
NORTHERN NEW ENGLAND
  
CITY           SKY/WX    TMP DP  RH WIND       PRES   REMARKS
PORTLAND ME    CLOUDY    43  35  73 N5        29.99S                  
BANGOR ME      PTCLDY    46  36  68 N10       29.98F                  
CONCORD NH     PTCLDY    31  28  89 CALM      30.00R                  
MANCHESTER NH  CLEAR     40  32  73 N5        29.98R                  
NASHUA NH      PTCLDY    35  34  96 W6        30.00R WCI  30          
PORTSMOUTH NH  PTCLDY    37  31  78 N7        29.99R WCI  32          
JAFFREY NH     PTCLDY    31  30  96 CALM      29.98R                  
KEENE NH       PTCLDY    33  32  96 S5        30.00R WCI  29          
BURLINGTON VT  CLEAR     51  41  68 S5        29.98R                  
MT. WASHINGTON FOG       28  28 100 E38G45      N/A  VSB 1/16WCI  11  
$$

NYZ052-076-130600-
EASTERN NEW YORK
  
CITY           SKY/WX    TMP DP  RH WIND       PRES   REMARKS
ALBANY         MOCLDY    42  39  89 CALM      29.99R                  
NEW YORK CITY  LGT RAIN  46  43  89 NE6       29.95S                  
$$
 
ANZALL-130600-
MARINE OBSERVATIONS
  
STATION/POSITION TIME  TEMP    WIND        PRES    VSBY  WAVE
                       AIR SEA DIR/SP/G                  HT/PER
                 (UTC) (F)     (DEG/KT/KT) (MB)    (MI)  (FT/S)
BOSTON BUOY      0450   43 44  340/ 12/ 14 1014.9R         5/ 7
BUZZARDS BAY     0400           10/ 13/ 14 1014.2R
NANTUCKET SOUND  0450      47                N/A           2/ 3
MASS BAY-STELLWA 0404   43     340/ 10/ 12 1013.3R  1 7/8  4/ 6
ISLE OF SHOALS   0400   42     340/  8/  9 1014.5R
S OF BLOCK IS    0426      44                N/A           5/ 6
$$

......................KEY.........................
  SKY/WX - SKY CONDITION/PRESENT WEATHER
  TMP    - TEMPERATURE IN FAHRENHEIT
  DWPT   - DEWPOINT IN FAHRENHEIT
  RH     - RELATIVE HUMIDITY IN PERCENT
  WIND   - DIRECTION AND SPEED IN MPH
  PRES   - MEAN SEA LEVEL PRESSURE IN INCHES OF HG
  WCI    - WIND CHILL INDEX
  VSB    - VISIBILITY IN MILES
  HX     - HEAT INDEX
  TC     - TEMPERATURE IN CELSIUS
  VRB    - VARIABLE WIND DIRECTION
  N/A    - NOT AVAILABLE
  
      

Other recent Regional Weather Roundups

Fri Apr 16, 9:04am

Fri Apr 16, 8:04am

Fri Apr 16, 7:04am

Fri Apr 16, 6:04am

Fri Apr 16, 5:04am

Fri Apr 16, 4:04am

Fri Apr 16, 3:04am

Fri Apr 16, 2:04am

Fri Apr 16, 1:04am

Fri Apr 16, 12:04am

Thu Apr 15, 11:05pm

Thu Apr 15, 10:04pm

Thu Apr 15, 9:04pm

Thu Apr 15, 8:04pm

Thu Apr 15, 7:05pm

Thu Apr 15, 6:04pm

Thu Apr 15, 5:05pm

Thu Apr 15, 4:04pm

Thu Apr 15, 3:05pm

Thu Apr 15, 2:04pm

Thu Apr 15, 1:05pm

Thu Apr 15, 12:04pm

Thu Apr 15, 11:04am

Thu Apr 15, 10:05am

Thu Apr 15, 9:04am

Thu Apr 15, 8:04am

Thu Apr 15, 7:04am

Thu Apr 15, 6:04am

Thu Apr 15, 5:04am

Thu Apr 15, 4:04am

Thu Apr 15, 3:04am

Thu Apr 15, 2:04am

Thu Apr 15, 1:04am

Thu Apr 15, 12:04am

Wed Apr 14, 11:04pm

Wed Apr 14, 10:04pm

Wed Apr 14, 9:04pm

Wed Apr 14, 8:04pm

Wed Apr 14, 7:04pm

Wed Apr 14, 6:04pm

Wed Apr 14, 5:05pm

Wed Apr 14, 4:04pm

Wed Apr 14, 3:05pm

Wed Apr 14, 2:04pm

Wed Apr 14, 1:05pm

Wed Apr 14, 12:04pm

Wed Apr 14, 11:04am

Wed Apr 14, 10:04am

Wed Apr 14, 9:04am

Wed Apr 14, 8:04am

Wed Apr 14, 7:04am

Wed Apr 14, 6:04am

Wed Apr 14, 5:04am

Wed Apr 14, 4:04am

Wed Apr 14, 3:04am

Wed Apr 14, 2:04am

Wed Apr 14, 1:04am

Wed Apr 14, 12:04am

Tue Apr 13, 11:04pm

Tue Apr 13, 10:05pm

Tue Apr 13, 9:05pm

Tue Apr 13, 8:05pm

Tue Apr 13, 7:04pm

Tue Apr 13, 6:04pm

Tue Apr 13, 5:05pm

Tue Apr 13, 4:04pm

Tue Apr 13, 3:04pm

Tue Apr 13, 2:05pm

Tue Apr 13, 1:04pm

Tue Apr 13, 12:05pm

Tue Apr 13, 11:05am

Tue Apr 13, 10:04am

Tue Apr 13, 9:04am

Tue Apr 13, 8:04am

Tue Apr 13, 7:04am

Tue Apr 13, 6:04am

Tue Apr 13, 5:04am

Tue Apr 13, 4:04am

Tue Apr 13, 3:04am

Tue Apr 13, 2:04am

Tue Apr 13, 12:05am

Mon Apr 12, 11:04pm

Mon Apr 12, 10:04pm

Mon Apr 12, 9:04pm

Mon Apr 12, 8:04pm

Mon Apr 12, 7:05pm

Mon Apr 12, 6:04pm

Mon Apr 12, 5:04pm

Mon Apr 12, 4:04pm

Mon Apr 12, 3:05pm

Mon Apr 12, 2:04pm

Mon Apr 12, 1:05pm

Mon Apr 12, 12:04pm

Mon Apr 12, 11:04am

Mon Apr 12, 10:04am

Mon Apr 12, 9:04am

Mon Apr 12, 8:04am

Mon Apr 12, 7:04am

Mon Apr 12, 6:04am

Mon Apr 12, 5:04am

Mon Apr 12, 4:04am

Mon Apr 12, 3:04am

Mon Apr 12, 2:04am

Mon Apr 12, 1:05am

Mon Apr 12, 12:04am

Sun Apr 11, 11:04pm

Sun Apr 11, 10:04pm

Sun Apr 11, 9:04pm

Sun Apr 11, 8:04pm

Sun Apr 11, 7:04pm

Sun Apr 11, 6:05pm

Sun Apr 11, 5:05pm

Sun Apr 11, 4:04pm

Sun Apr 11, 3:05pm

Sun Apr 11, 2:05pm

Sun Apr 11, 1:05pm

Sun Apr 11, 12:04pm

Sun Apr 11, 11:05am

Sun Apr 11, 10:05am

Sun Apr 11, 9:04am

Sun Apr 11, 8:04am

Sun Apr 11, 7:04am

Sun Apr 11, 6:04am

Sun Apr 11, 5:04am

Sun Apr 11, 4:04am

Sun Apr 11, 3:04am

Sun Apr 11, 2:04am

Sun Apr 11, 1:05am

Sun Apr 11, 12:04am

Sat Apr 10, 11:05pm

Sat Apr 10, 10:04pm

Sat Apr 10, 9:04pm

Sat Apr 10, 8:04pm

Sat Apr 10, 7:05pm

Sat Apr 10, 6:04pm

Sat Apr 10, 5:04pm

Sat Apr 10, 4:04pm

Sat Apr 10, 3:04pm

Sat Apr 10, 2:05pm

Sat Apr 10, 1:04pm

Sat Apr 10, 12:04pm

Sat Apr 10, 11:04am

Sat Apr 10, 10:04am

Sat Apr 10, 9:04am

Sat Apr 10, 8:04am

Sat Apr 10, 7:04am

Sat Apr 10, 6:04am

Sat Apr 10, 5:04am

Sat Apr 10, 4:04am

Sat Apr 10, 3:04am

Sat Apr 10, 2:04am

Sat Apr 10, 1:05am

Sat Apr 10, 12:04am

Fri Apr 9, 11:04pm

Fri Apr 9, 10:05pm

Fri Apr 9, 9:04pm

Fri Apr 9, 8:05pm

Fri Apr 9, 7:05pm

Fri Apr 9, 6:04pm

Fri Apr 9, 5:04pm

Fri Apr 9, 4:05pm

Fri Apr 9, 3:05pm

Fri Apr 9, 2:04pm

Fri Apr 9, 1:04pm

Fri Apr 9, 12:04pm

Fri Apr 9, 11:05am

Fri Apr 9, 10:04am

Meta data:

ID: 33f28120-4043-4146-9064-4fe5e1cd7dea
Link: https://api.weather.gov/products/33f28120-4043-4146-9064-4fe5e1cd7dea